Regional Weather Roundup
Issued by NWS Bismarck, ND

Home | Current Version | Previous Version | Text Only | Print | Product List | Glossary On
Versions: 1 2 3 4 5 6 7 8 9 10 11 12 13 14 15 16 17 18 19 20 21 22 23 24 25 26 27 28 29 30 31 32 33 34 35 36 37 38 39 40 41 42 43 44 45 46 47 48 49 50
545
ASUS43 KBIS 130902
RWRBIS

NWR BROADCAST TEXT
NATIONAL WEATHER SERVICE BISMARCK ND
300 AM CST SAT FEB 13 2016

NOTE: "FAIR" INDICATES FEW OR NO CLOUDS BELOW 12,000 FEET WITH NO
SIGNIFICANT WEATHER AND/OR OBSTRUCTIONS TO VISIBILITY.


CITY           SKY/WX    TMP DP  RH WIND       PRES   REMARKS
WILLISTON      LGT SNOW  13   7  77 SE9       30.22F WCI   1
MINOT          CLOUDY     7  -5  57 SE13      30.36F WCI  -9
MINOT AFB      CLOUDY     6  -3  67 SE17      30.36F WCI -13
BISMARCK       CLOUDY     8  -1  66 SE12      30.43F WCI  -7
DICKINSON      CLOUDY    11   6  81 SE20      30.18F WCI  -7
GARRISON         N/A      6  -2  69 SE15      30.34F WCI -12
HETTINGER ARPT CLOUDY    14   9  80 SE17      30.22F WCI  -3
JAMESTOWN      CLOUDY    -5 -12  72 SE8       30.52F WCI -20
CARRINGTON     FAIR      -4  -8  84 SE10      30.51F WCI -21
HAZEN          FLURRIES   7   0  72 SE9       30.37F WCI  -7
LINTON         FAIR       3  -2  78 SE14      30.45F WCI -15
MANDAN         FLURRIES   5   0  78 SE15      30.39F WCI -13
OAKES          FAIR      -2  -9  71 SE6       30.58S WCI -14
STANLEY        CLOUDY     9   3  78 SE15      30.29S WCI  -8
WATFORD CITY   FLURRIES  10   7  85 SE12G18   30.22F WCI  -4
$$

CITY           SKY/WX    TMP DP  RH WIND       PRES   REMARKS
GRAND FORKS    CLOUDY    -8 -14  74 S3        30.63F
GRAND FORKS AF CLOUDY   -10 -16  75 S2        30.61F
DEVILS LAKE    CLOUDY   -12 -16  82 S6        30.52F WCI -26
FARGO          CLOUDY    -8 -15  71 CALM      30.64F
GRAFTON        FAIR     -11 -15  84 S6        30.65F WCI -25
GWINNER        FAIR      -8 -13  77 CALM      30.60S
LANGDON        FAIR     -22 -27  76 SE7       30.49F WCI -39
$$

CITY           SKY/WX    TMP DP  RH WIND       PRES   REMARKS
ABERDEEN       CLOUDY     1  -7  68 SE6       30.58F WCI -10
MOBRIDGE       FLURRIES   7   1  76 SE14      30.39F WCI -10
BUFFALO          N/A     20  17  88 SE20      30.07F WCI   4
RAPID CITY     CLOUDY    27  23  85 SE14      30.13F WCI  16
GLASGOW        CLOUDY    18  14  84 E18       30.03F WCI   2
SIDNEY         CLOUDY    18  12  79 SE12      30.17F WCI   5
WOLF POINT     CLOUDY    18  13  80 E13       30.10F WCI   5
GLENDIVE       CLOUDY    21  18  86 SE8       30.11F WCI  12
MILES CITY     CLOUDY    29  24  82 SE13      30.03F WCI  19
BAKER          CLOUDY    20  15  81 SE22G28   30.09F WCI   3
$$

CITY           SKY/WX    TMP DP  RH WIND       PRES   REMARKS
BILLINGS       CLOUDY    33  29  85 S5        29.98F
GREAT FALLS    CLEAR     43  31  62 S15       29.88F
$$





USA.gov is the U.S. government's official web portal to all federal, state and local government web resources and services.